Lethbridge, Alberta

4:19 PM MST on December 02, 2016 (GMT -0700)
Lethbridge Airport

Weather History for CYQL - June, 2013

Change the Weather History Date:

Sunday, June 30, 2013

  Actual Average Record
Temperature  
Mean Temperature 68 °F -  
Max Temperature 79 °F 71 °F 91 °F (2008)
Min Temperature 58 °F 46 °F 42 °F (2014)
Cooling Degree Days 4    
Growing Degree Days 18 (Base 50)    
Moisture  
Dew Point 59 °F    
Average Humidity 73    
Maximum Humidity 94    
Minimum Humidity 41    
Precipitation  
Precipitation 0.43 in - - ()
Sea Level Pressure  
Sea Level Pressure 30.06 in    
Wind  
Wind Speed 11 mph ()    
Max Wind Speed 26 mph    
Max Gust Speed 39 mph    
Visibility 7.0 miles    
Events Rain , Thunderstorm    
Averages and records for this station are not official NWS values.
T = Trace of Precipitation, MM = Missing Value Source: Averaged Metar Reports

Daily Weather History Graph

Daily Weather History Graph

Search for Another Location

Airport or City:

Trip Planner

Search our weather history database for the weather conditions in past years. The results will help you decide how hot, cold, wet, or windy it might be!

Date:

Astronomy

Jun. 30, 2013 Rise Set
Actual Time 5:27 AM MDT 9:41 PM MDT
Civil Twilight 4:44 AM MDT 10:25 PM MDT
Nautical Twilight 3:41 AM MDT 11:28 PM MDT
Astronomical Twilight 2:07 AM MDT 1:02 AM MDT
Moon 12:57 AM MDT (6/30) 2:35 PM MDT (6/30)
Length of Visible Light 17h 41m
Length of Day
16h 14m
Last Quarter, 45% of the Moon is Illuminated
Jun 30
Last Quarter
Jul 8
New
Jul 15
First Quarter
Jul 22
Full
Jul 29
Last Quarter

Hourly Weather History & Observations

Time (MDT) Temp. Dew Point Humidity Pressure Visibility Wind Dir Wind Speed Gust Speed Precip Events Conditions
12:00 AM 63 °F 57 °F 74% 30.01 in 10 mi SSW 11.5 mph - -  
12:00 AM 62.6 °F 57.2 °F 82% 30.01 in 9.0 mi SSW 11.5 mph - N/A   Clear
1:00 AM 68.0 °F 57.2 °F 68% 30.01 in 9.0 mi SSW 10.4 mph - N/A   Overcast
2:00 AM 64.4 °F 57.2 °F 77% 30.01 in 9.0 mi SW 10.4 mph - N/A   Mostly Cloudy
2:35 AM 68.0 °F 59.0 °F 73% 30.00 in 9.0 mi SSW 12.7 mph - N/A Thunderstorm Overcast
2:51 AM 68.0 °F 57.2 °F 68% 30.00 in 9.0 mi SSW 9.2 mph 17.3 mph N/A   Overcast
3:00 AM 68.0 °F 59.0 °F 73% 30.00 in 9.0 mi SSW 12.7 mph - N/A   Overcast
3:14 AM 68.0 °F 59.0 °F 73% 30.00 in 9.0 mi South 11.5 mph - N/A Thunderstorm Thunderstorm
3:24 AM 68.0 °F 60.8 °F 78% 30.02 in 5.0 mi SSW 18.4 mph - N/A Rain , Thunderstorm Light Thunderstorms and Rain
3:25 AM 66.2 °F 60.8 °F 83% 30.02 in 5.0 mi SSW 15.0 mph 21.9 mph N/A Rain , Thunderstorm Heavy Thunderstorms and Rain
3:36 AM 64.4 °F 60.8 °F 88% 30.01 in 3.0 mi South 16.1 mph - N/A Rain , Thunderstorm Heavy Thunderstorms and Rain
3:43 AM 66.2 °F 60.8 °F 83% 30.01 in 3.0 mi South 17.3 mph 24.2 mph N/A Rain , Thunderstorm Heavy Thunderstorms and Rain
3:44 AM 64.4 °F 60.8 °F 88% 30.01 in 3.0 mi South 16.1 mph 24.2 mph N/A Rain , Thunderstorm Thunderstorms and Rain
3:45 AM 64.4 °F 60.8 °F 88% 30.01 in 3.0 mi South 16.1 mph 24.2 mph N/A Rain , Thunderstorm Heavy Thunderstorms and Rain
3:47 AM 64.4 °F 57.2 °F 77% 30.00 in 2.2 mi SSE 26.5 mph 33.4 mph N/A Rain , Thunderstorm Heavy Thunderstorms and Rain
3:56 AM 66.2 °F 59.0 °F 78% 30.00 in 2.5 mi South 25.3 mph 33.4 mph N/A Thunderstorm Unknown
4:00 AM 66.2 °F 57.2 °F 73% 30.01 in 3.0 mi South 23.0 mph 39.1 mph N/A Thunderstorm Unknown
4:02 AM 66.2 °F 55.4 °F 68% 30.00 in 3.0 mi SSE 25.3 mph 39.1 mph N/A Rain , Thunderstorm Thunderstorms and Rain
4:06 AM 66.2 °F 57.2 °F 73% 30.01 in 7.0 mi SSE 18.4 mph 39.1 mph N/A Rain , Thunderstorm Light Thunderstorms and Rain
4:08 AM 64.4 °F 57.2 °F 77% 30.00 in 9.0 mi SE 19.6 mph 34.5 mph N/A Rain , Thunderstorm Light Thunderstorms and Rain
4:30 AM 66.2 °F 57.2 °F 73% 30.03 in 9.0 mi West 6.9 mph - N/A Thunderstorm Thunderstorm
4:42 AM 64.4 °F 59.0 °F 83% 30.04 in 9.0 mi NNW 9.2 mph - N/A Thunderstorm Mostly Cloudy
4:50 AM 64.4 °F 59.0 °F 83% 30.04 in 9.0 mi NNW 4.6 mph - N/A   Mostly Cloudy
5:00 AM 64.4 °F 59.0 °F 83% 30.03 in 9.0 mi NNW 3.5 mph - N/A   Scattered Clouds
6:00 AM 60 °F 57 °F 87% 30.06 in 10 mi NW 5.8 mph - -   Clear
6:00 AM 59.0 °F 57.2 °F 94% 30.06 in 40.0 mi NW 6.9 mph - N/A   Partly Cloudy
7:00 AM 62.6 °F 59.0 °F 88% 30.08 in 40.0 mi WNW 6.9 mph - N/A   Partly Cloudy
8:00 AM 64.4 °F 59.0 °F 83% 30.10 in 40.0 mi NW 5.8 mph - N/A   Partly Cloudy
9:00 AM 68.0 °F 60.8 °F 78% 30.11 in 40.0 mi WNW 6.9 mph - N/A   Partly Cloudy
10:00 AM 69.8 °F 62.6 °F 78% 30.12 in 25.0 mi NNW 6.9 mph - N/A   Partly Cloudy
11:00 AM 73.4 °F 60.8 °F 65% 30.11 in 30.0 mi WNW 6.9 mph - N/A   Partly Cloudy
12:00 PM 74 °F 61 °F 55% 30.12 in 10 mi WNW 5.8 mph - -  
12:00 PM 73.4 °F 60.8 °F 65% 30.12 in 30.0 mi WNW 6.9 mph - N/A   Partly Cloudy
1:00 PM 75.2 °F 60.8 °F 61% 30.10 in 30.0 mi NW 5.8 mph - N/A   Partly Cloudy
2:00 PM 77.0 °F 60.8 °F 57% 30.11 in 30.0 mi NNW 3.5 mph - N/A   Partly Cloudy
3:00 PM 78.8 °F 60.8 °F 54% 30.09 in 30.0 mi NE 6.9 mph - N/A   Partly Cloudy
4:00 PM 78.8 °F 59.0 °F 51% 30.10 in 30.0 mi NNE 6.9 mph - N/A   Partly Cloudy
5:00 PM 78.8 °F 59.0 °F 51% 30.10 in 30.0 mi NE 8.1 mph - N/A   Partly Cloudy
6:00 PM 80 °F 60 °F 41% 30.11 in 10 mi NE 8.1 mph - -  
6:00 PM 78.8 °F 60.8 °F 54% 30.11 in 30.0 mi NNE 8.1 mph - N/A   Partly Cloudy
7:00 PM 78.8 °F 60.8 °F 54% 30.11 in 30.0 mi ENE 5.8 mph - N/A   Partly Cloudy
8:00 PM 77.0 °F 62.6 °F 61% 30.12 in 30.0 mi NE 8.1 mph - N/A   Partly Cloudy
9:00 PM 73.4 °F 64.4 °F 73% 30.13 in 30.0 mi NE 5.8 mph - N/A   Partly Cloudy
10:00 PM 69.8 °F 60.8 °F 73% 30.14 in 30.0 mi NNE 6.9 mph - N/A   Partly Cloudy
11:00 PM 66.2 °F 60.8 °F 83% 30.15 in 9.0 mi ENE 3.5 mph - N/A   Clear